Bandar Judi Ceme Online dan Agen Live Poker Online Terbesar dan Terpercaya

Bandar Toto Resmi Online Indonesia
Sabung ayam - Sabung Ayam Live

Jackpot

Texas Poker Multi Jackpot System

Kini Telah hadir Jackpot SUPER ROYAL FLUSH

Kini Telah hadir Jackpot 2000 (khusus table VIP keatas).

Ikutilah global jackpot yang tersedia di system kami, dengan system jackpot terbaru dan pertama di indonesia, anda dapat membeli jackpot dengan harga 100 rupiah saja dan menangkan hadiahnya hingga puluhan juta rupiah.

Jackpot bukanlah suatu keharusan untuk dibeli, namun kami memberikan suatu fitur tambahan untuk member tercinta dari www.kamipoker99.com.

Terdapat tiga pilihan harga jackpot yang bisa anda beli yaitu :100,500,1000 dan 2000(khusus table VIP Keatas) rupiah.

Hadiah dari Multi jackpot system www.kamipoker99.com

  1. full house x 10 harga jackpot yang anda beli.
      (contoh:anda membeli 1000 maka:1000 X10 = 10.000)
  2. four of kind x 250 harga jackpot yang anda beli
      (contoh:anda membeli 1000 maka:1000 X250 = 250.000)
  3. Straight flush x 1200
      (contoh:anda membeli 1000 maka:1000 X1200 = 1.200.000)
  4. Royal flush x 10000 harga jackpot yang anda beli
      (contoh:anda membeli 1000 maka:1000 X10000 = 10.000.000)
  5. SUPER ROYAL FLUSH x 30000 harga jackpot yang anda beli
      (contoh:anda membeli 1000 maka:1000 X30000 = 30.000.000)

Kondisi kartu

  1. full house adalah kondisi kartu dimana kartu anda dan kartu tengah dengan total 7 kartu bisa mendapatkan nilai 5 kartu dengan kombinasi 1 tris(three of kind) dan 1 pair, contoh 3 kartu 10 dan 2 kartu 5
  2. Four of kind adalah kondisi kartu dimana kartu anda dan kartu tengah dengan total 7 kartu bisa mendapatkan nilai 5 kartu dengan kombinasi 4 kartu yang sama jumlah dan 1 kartu apapun juga contoh anda mendapatkan 4 buah kartu angka 3 dan 1 kartu apapun.
  3. Staright flush adalah kondisi kartu dimana kartu anda dan kartu tengah dengan total 7 kartu bisa mendapatkan nilai 5 kartu dengan kombinasi seri / staright dengan kembang yang sama contoh : urutan kartu dari angka 5, 6, 7, 8 , 9 10 dengan kembang yg sama misalnya as hati
  4. Royal flush adalah kondisi kartu dimana kartu anda dan kartu tengah dengan total 7 kartu bisa mendapatkan nilai 5 kartu dengan kombinasi seri / staright dengan kembang yang sama tetapi kartu tersebut haruslah dimulai dari 10. contoh 10, Queen, Jack, King dan aces dengan kembang yang sama
  5. Super Royal flush adalah kondisi kartu dimana Kedua kartu anda digabung dengan 3 kartu pertama meja haruslah royal flush. contoh kartu anda 10,Queen kembang sama dan 3 kartu pertama meja adalah Jack, King dan aces dengan kembang yang sama

Demikian adalah penjelasan dari Multi Jackpot www.kamipoker99.com terima kasih dan selamat bermain salam hoki dari kami

Texas Poker Jackpot Winner

TOP SUPER ROYAL FLUSH
No.TanggalNamaPriceWin
121/05 03:49EDAY777Super Royal flush3,000,000
221/05 03:35ADRB125ZSuper Royal flush3,000,000
321/05 02:32BANGZAKISuper Royal flush60,000,000
420/05 23:45GIBROK10Super Royal flush6,000,000
520/05 21:18QIPRU999Super Royal flush3,000,000
TOP ROYAL FLUSH
No.TanggalNamaPriceWin
121/05 13:06KENYO999Royal flush10,000,000
221/05 13:03BTHDANACPTRoyal flush500,000
321/05 13:03B4B0N123Royal flush1,000,000
421/05 12:45RAJADIFARoyal flush2,000,000
521/05 12:17A88WIWIT23824Royal flush2,000,000
TOP STRAIGHT FLUSH
No.TanggalNamaPriceWin
121/05 13:32X10X_Straight Flush120,000
221/05 13:30ERVANRIV81Straight Flush240,000
321/05 13:30KANJENG87Straight Flush1,200,000
421/05 13:30PATHILASANStraight Flush2,400,000
521/05 13:27PUING39Straight Flush240,000
LATEST JACKPOT
No.TanggalNamaPriceWin
121/05 13:35PONGSE99Full House1,000
221/05 13:35WITA57Full House2,000
321/05 13:35MALOMOTU77Full House2,000
421/05 13:35POP3Y333Full House10,000
521/05 13:35ZYNGAH99Full House2,000
621/05 13:35LLIAR1927Full House500
721/05 13:35KOTOR123Full House1,000
821/05 13:35GROWNUPSFull House10,000
921/05 13:35BC3D7121Full House5,000
1021/05 13:35D1B125D5Full House10,000
1121/05 13:35BEC3XFull House20,000
1221/05 13:35D44V1D99Full House1,000
1321/05 13:35DIKA0908Full House2,000
1421/05 13:35B16CZOFull House2,000
1521/05 13:35PSRFJPFull House1,000
1621/05 13:35PUDHE97Full House2,000
1721/05 13:35HARRY877Full House2,000
1821/05 13:35S4524P5W1IFull House10,000
1921/05 13:35PAMPAWEFull House2,000
2021/05 13:35ANDRYAWAN1Full House1,000
2121/05 13:35D7219FB6Full House5,000
2221/05 13:34KICRUT21Full House10,000
2321/05 13:34ALLEANKAFull House10,000
2421/05 13:34KIPALUBAFull House2,000
2521/05 13:34AKEP13Full House1,000
2621/05 13:34ALEXS567Full House2,000
2721/05 13:34ABI85Full House2,000
2821/05 13:34MISSDHEVIEFull House1,000
2921/05 13:34C16AK384Full House2,000
3021/05 13:34BREGG83Full House5,000
3121/05 13:34PLGFHIEFull House20,000
3221/05 13:34SANTOS8812Full House2,000
3321/05 13:34ZERO_001Full House5,000
3421/05 13:34KANCRA500Full House2,000
3521/05 13:34FROGYELLOWFull House5,000
3621/05 13:34D990BE32Four Of A Kind125,000
3721/05 13:34KAMU_AJAFull House2,000
3821/05 13:34DWTTOLONG18Full House1,000
3921/05 13:34G4G4QFull House2,000
4021/05 13:34DWBTBET288Full House2,000
4121/05 13:34B85CK449Four Of A Kind125,000
4221/05 13:34PANGEFull House1,000
4321/05 13:34SELVY2727Full House2,000
4421/05 13:34TEMPIK01Full House2,000
4521/05 13:34BADAWI55Full House1,000
4621/05 13:34ALDRICH_99Full House10,000
4721/05 13:34ASUKIREK88Full House500
4821/05 13:34DHIKA501Full House2,000
4921/05 13:34EWANG89Full House2,000
5021/05 13:34SDMZ2JIBGRFull House5,000

Domino Multi Jackpot System

Ikutilah global jackpot yang tersedia di system kami, dengan system jackpot terbaru dan pertama di indonesia, anda dapat membeli jackpot dengan harga 100 rupiah saja dan menangkan hadiahnya hingga puluhan juta rupiah.

Jackpot bukanlah suatu keharusan untuk dibeli, namun kami memberikan suatu fitur tambahan untuk member tercinta dari www.kamipoker99.com.

Terdapat tiga pilihan harga jackpot yang bisa anda beli yaitu :100,500 dan 1000 rupiah.

Hadiah dari Multi jackpot system www.kamipoker99.com

  1. Murni Kecil x 50 harga jackpot yang anda beli.
      (contoh:anda membeli 1000 maka:1000 X 50 = 50.000)
  2. Murni Besar x 50 harga jackpot yang anda beli
      (contoh:anda membeli 1000 maka:1000 X 50 = 50.000)
  3. BALAK x 100 harga jackpot yang anda beli
      (contoh:anda membeli 1000 maka:1000 X 100 = 100.000)
  4. ENAM DEWA x 6666 harga jackpot yang anda beli
      (contoh:anda membeli 1000 maka:1000 X 6666 = 6.666.000)

Demikian adalah penjelasan dari Multi Jackpot www.kamipoker99.com terima kasih dan selamat bermain salam hoki dari kami

Domino Jackpot Winner

TOP ENAM DEWA
No.TanggalNamaPriceWin
121/05 11:26ROBOT565murni enam666,600
221/05 11:17M_MAIL777murni enam3,333,000
321/05 08:55CAKRA233murni enam666,600
421/05 08:19AGOGO8888murni enam3,333,000
521/05 06:27QQMUJUR66murni enam6,666,000
TOP BALAK
No.TanggalNamaPriceWin
121/05 13:31LATONGIbalak100,000
221/05 13:29TASELA999balak50,000
321/05 13:28P3N3balak100,000
421/05 13:26A4623670balak100,000
521/05 13:26BBABEEbalak10,000
LATEST JACKPOT
No.TanggalNamaPriceWin
121/05 13:33SMRR_66murni besar25,000
221/05 13:32ERIS95murni kecil50,000
321/05 13:32EORH43EZAEmurni kecil25,000
421/05 13:31LATONGIbalak100,000
521/05 13:31VGOADI01lucky9925,000
621/05 13:30SANQQ_888murni kecil25,000
721/05 13:29AULEAmurni besar50,000
821/05 13:29TASELA999balak50,000
921/05 13:28AS1810murni besar50,000
1021/05 13:28IDO95lucky99200,000
1121/05 13:28P3N3balak100,000
1221/05 13:27MR_CAIRlucky992,500
1321/05 13:27M1R4E989murni kecil50,000
1421/05 13:27PABLOO96murni kecil50,000
1521/05 13:27B00NGQQmurni besar25,000
1621/05 13:26A4623670balak100,000
1721/05 13:26BBABEEbalak10,000
1821/05 13:25BET0R5murni kecil25,000
1921/05 13:25AR1SALF1ANmurni besar25,000
2021/05 13:25UNGKIIIIImurni kecil25,000
2121/05 13:24CILOL77murni kecil5,000
2221/05 13:24S3LLOOmurni besar25,000
2321/05 13:23ARANG21murni kecil50,000
2421/05 13:23A5D6APO5HEmurni besar50,000
2521/05 13:23BBABEEmurni besar5,000
2621/05 13:18ANDREGAN12murni kecil5,000
2721/05 13:17RIRIWACAI6murni besar25,000
2821/05 13:17ARDIANUS96lucky9950,000
2921/05 13:16GERY66balak100,000
3021/05 13:15AS1810murni kecil50,000
3121/05 13:15G4G49QQmurni besar50,000
3221/05 13:14BLMAMBA420murni besar25,000
3321/05 13:14SAKOY82balak100,000
3421/05 13:13BET0R5murni besar25,000
3521/05 13:13DM82997murni besar50,000
3621/05 13:13SHR72murni besar50,000
3721/05 13:13OKTO65murni kecil25,000
3821/05 13:12M1R4E989murni kecil50,000
3921/05 13:11TGMJAYAOKmurni besar50,000
4021/05 13:11BET0R5balak50,000
4121/05 13:11MUKLAS17murni kecil50,000
4221/05 13:10ALEN43murni kecil5,000
4321/05 13:10TGMJAYAOKbalak100,000
4421/05 13:07KOPOKTETAHlucky9925,000
4521/05 13:07NOVELVIPmurni kecil25,000
4621/05 13:07KISWATI56murni besar25,000
4721/05 13:07BLUEDEVIL8murni kecil50,000
4821/05 13:06KERONTANmurni besar5,000
4921/05 13:06SINAKmurni besar50,000
5021/05 13:06ANGKE888murni kecil50,000

Ceme Multi Jackpot System

Jackpot dilihat dari gabungan kartu pemain dengan kartu bandar. Bandar harus membeli jackpot sebanyak jumlah player yang sedang duduk. Sebagai contoh bila terdapat 3 pemain duduk bermain, dan bandar memutuskan untuk membeli jackpot Rp 1.000, maka pada periode tersebut bandar akan membeli jackpot sebanyak 3xRp1.000 = Rp3.000.

Jackpot bukanlah suatu keharusan untuk dibeli, namun kami memberikan suatu fitur tambahan untuk member tercinta dari www.kamipoker99.com.

Terdapat tiga pilihan harga jackpot yang bisa anda beli yaitu :100,500 dan 1000 rupiah.

Hadiah dari Multi jackpot system www.kamipoker99.com

  1. Murni Kecil x 50 harga jackpot yang anda beli.
      (contoh:anda membeli 1000 maka:1000 X 50 = 50.000)
  2. Murni Besar x 50 harga jackpot yang anda beli
      (contoh:anda membeli 1000 maka:1000 X 50 = 50.000)
  3. BALAK x 200 harga jackpot yang anda beli
      (contoh:anda membeli 1000 maka:1000 X 200 = 200.000)
  4. ENAM DEWA x 6666 harga jackpot yang anda beli
      (contoh:anda membeli 1000 maka:1000 X 6666 = 6.666.000)

Demikian adalah penjelasan dari Multi Jackpot www.kamipoker99.com terima kasih dan selamat bermain salam hoki dari kami

Ceme Jackpot Winner

TOP ENAM DEWA
No.TanggalNamaPriceWin
121/05 13:35DARREN14murni enam6,666,000
221/05 13:13ZEN2121murni enam6,666,000
321/05 13:13HERIELBAmurni enam3,333,000
421/05 12:43NADILAQUENmurni enam3,333,000
521/05 12:43MKHRmurni enam6,666,000
TOP BALAK
No.TanggalNamaPriceWin
121/05 13:33MBO368balak200,000
221/05 13:33IKI99999balak100,000
321/05 13:33IP4NK007balak200,000
421/05 13:32FAHMITOKbalak200,000
521/05 13:31WAWHA88balak20,000
LATEST JACKPOT
No.TanggalNamaPriceWin
121/05 13:35NAYA555murni kecil50,000
221/05 13:35RIVANIImurni kecil50,000
321/05 13:35PUKIAT1murni kecil50,000
421/05 13:35H127B5SY4Zmurni kecil50,000
521/05 13:35DEMPLON15murni kecil50,000
621/05 13:35M4T4H4R11murni kecil50,000
721/05 13:35DEMPLON15murni kecil50,000
821/05 13:35NGABUSTAMmurni kecil5,000
921/05 13:35DARREN14murni enam6,666,000
1021/05 13:35KAKANGBRAMmurni kecil50,000
1121/05 13:35TIAN1012murni kecil5,000
1221/05 13:35GUNDUL8989murni besar50,000
1321/05 13:35JURIDAYAT8murni besar50,000
1421/05 13:35SOMBRO00murni besar5,000
1521/05 13:35SOMBRO00murni besar5,000
1621/05 13:35FS23murni besar25,000
1721/05 13:34JISONG___murni kecil50,000
1821/05 13:34SORAYAWEWmurni kecil50,000
1921/05 13:34R1A2H3M4A5murni besar5,000
2021/05 13:3488TOPOmurni kecil50,000
2121/05 13:34LUNT4Mmurni besar50,000
2221/05 13:34LUNT4Mmurni besar50,000
2321/05 13:34KARTINI28murni besar50,000
2421/05 13:34SQUIDEYmurni kecil5,000
2521/05 13:34CL4UD10murni kecil25,000
2621/05 13:34HAPPY688murni kecil50,000
2721/05 13:33MBO368balak200,000
2821/05 13:33IKI99999balak100,000
2921/05 13:33SUTEX5758murni kecil5,000
3021/05 13:33IPIN504murni besar50,000
3121/05 13:33JUAHNDSG76murni besar25,000
3221/05 13:33ARLANAFANmurni besar50,000
3321/05 13:33CEPOTLGmurni kecil50,000
3421/05 13:33TAIASUHmurni kecil50,000
3521/05 13:33XHUBS75murni besar50,000
3621/05 13:33IP4NK007balak200,000
3721/05 13:33PRISTIKAmurni kecil50,000
3821/05 13:33AAOXHRETTZmurni kecil5,000
3921/05 13:33AMARA88murni besar50,000
4021/05 13:32ZINZOmurni kecil5,000
4121/05 13:32TEMPEKTUO1murni kecil50,000
4221/05 13:32FAHMITOKbalak200,000
4321/05 13:32ABCD1988murni besar5,000
4421/05 13:32AMAN678murni besar50,000
4521/05 13:31WAWHA88balak20,000
4621/05 13:31CICEQENEmurni kecil50,000
4721/05 13:31RIZWAN1928murni besar50,000
4821/05 13:31KOKOWAHmurni kecil50,000
4921/05 13:31MONSJACK77murni kecil25,000
5021/05 13:31ONEK72murni besar50,000